Tracking 35331 objects as of 16-Sep-2026
HD Live streaming from Space Station
objects crossing your sky now

NUSAT-24 (KALPANA CHAWIA


NUSAT-24 (KALPANA CHAWIA is no longer on orbit


NORAD ID: 52178
Int'l Code: 2022-033X
Launch date: April 1, 2022
Source: United States (US)
Launch site: AIR FORCE EASTERN TEST RANGE (AFETR)
Decay date: 2025-01-11
Your satellite tracking list
Your tracking list is empty




NASA's NSSDC Master Catalog

Two Line Element Set (TLE):
1 52178U 22033X   25005.51063736  .11649244  24107-5  29536-3 0  9994
2 52178  97.2255  97.1809 0009765 301.4116  58.6231 16.45268786155023
Source of the keplerian elements: AFSPC